[[{"header":{"parameterUnit":"m.s-1","parameterCategory":1,"la1":30.2991,"la2":30.254,"lo1":-89.0895,"lo2":-89.0444,"dy":0.0017,"dx":0.0017,"nx":28,"ny":28,"refTime":"2024-08-08T21:00:00:Z","depth":0,"parameterNumber":2,"parameterNumberName":"U-component_of_WINDS"},"data":[0,0,0,0,0,0,0,0,0,0,0,0,0,0,0,0,0,0,0,0,0,0,0,0,0,0,0,0,0,0,0,0,0,0,0,0,0,0,0,0,0,0,0,0,0,0,0,0,0,0,0,0,0,0,0,0,0,0,0.665,0.6652,0,0.6776,0.6777,0.6779,0.6811,0.681,0.6809,0.6808,0.6939,0.6943,0.6948,0,0,0,0,0,0,0,0,0,0,0,0,0,0.644,0.6443,0.665,0.6652,0.6653,0.6776,0.6778,0.6779,0.6811,0.681,0.6809,0.6808,0.6938,0.6943,0.6948,0,0,0,0,0,0,0,0,0,0,0,0,0,0.6545,0.6444,0.665,0.6684,0.6688,0.6775,0.6778,0.678,0.6811,0.681,0.6809,0.6807,0.6936,0.6942,0.6949,0.7012,0,0,0.6968,0.6971,0,0,0,0,0,0,0,0,0.6539,0.6552,0.6677,0.6682,0.6687,0.6776,0.6751,0.6858,0.6811,0.6764,0.6808,0.6807,0.6886,0.6897,0.6923,0.7018,0.7024,0.6969,0.6973,0.6975,0.6977,0,0,0,0,0,0,0,0.6531,0.6547,0.67,0.6679,0.6685,0.6693,0.6707,0.6772,0.6831,0.6768,0.6771,0.6785,0.6889,0.6917,0.6926,0.7026,0.6968,0.6974,0.6978,0.6981,0.7179,0.718,0,0,0,0,0,0,0.6518,0.6541,0.6696,0.6704,0.6608,0.6698,0.6713,0.6749,0.683,0.6841,0.6786,0.6786,0.6906,0.6919,0.6931,0.701,0.6975,0.6981,0.6985,0.7178,0.7179,0.7181,0,0,0,0,0,0,0.6513,0.6531,0.6691,0.6623,0.6644,0.6703,0.6743,0.6752,0.678,0.6843,0.6854,0.6804,0.6906,0.6922,0.6991,0.7015,0.6984,0.699,0.7176,0.7178,0.718,0.7169,0,0,0,0,0,0,0.6507,0.653,0.6554,0.6623,0.6648,0.6749,0.6744,0.6755,0.6791,0.6792,0.6863,0.6874,0.6906,0.6982,0.6998,0.7024,0.6995,0.7174,0.7177,0.7179,0.7168,0.7171,0.7174,0,0,0,0,0,0.6499,0.6546,0.6555,0.6573,0.6679,0.675,0.6764,0.68,0.6792,0.6818,0.6858,0.6871,0.701,0.6989,0.7007,0.7035,0.7173,0.7176,0.7179,0.7167,0.717,0.7174,0,0,0,0,0,0,0.6479,0.6556,0.6566,0.6637,0.6687,0.6755,0.6788,0.6803,0.6856,0.6855,0.6898,0.6914,0.6981,0.7015,0.699,0.71,0.7091,0.7098,0.7076,0.708,0.7082,0.7073,0.7,0,0,0,0,0,0.6482,0.6533,0.6598,0.6654,0.6678,0.6729,0.6761,0.6784,0.6838,0.6859,0.6905,0.6957,0.7012,0.7048,0.7102,0.7173,0.7189,0.7201,0.7204,0.7206,0.7212,0.7252,0.7258,0.7192,0.7192,0.7192,0,0,0.6491,0.6539,0.6569,0.6651,0.6692,0.6744,0.6746,0.6801,0.6841,0.6868,0.6936,0.6971,0.7032,0.7102,0.7136,0.7133,0.7233,0.721,0.7211,0.7216,0.7256,0.7262,0.7267,0.7194,0.7194,0.7193,0,0,0.6532,0.6574,0.6625,0.6666,0.6728,0.6761,0.6773,0.684,0.6864,0.6933,0.6954,0.7002,0.7096,0.7138,0.7172,0.7229,0.7243,0.7246,0.7261,0.7299,0.7304,0.7309,0.7329,0.7336,0.7251,0.7251,0.7251,0,0.6535,0.6613,0.6649,0.6703,0.6739,0.6765,0.6818,0.6856,0.6933,0.6957,0.6953,0.7072,0.7114,0.7195,0.7208,0.7235,0.7251,0.7238,0.73,0.7305,0.7311,0.733,0.7338,0.7251,0.7251,0.7251,0.7251,0,0.6613,0.6667,0.6701,0.6774,0.6814,0.6867,0.6911,0.6947,0.6967,0.7001,0.707,0.7123,0.7188,0.7209,0.7229,0.7292,0.7288,0.7291,0.7283,0.7316,0.7335,0.7343,0.7251,0.7251,0.7251,0.7251,0,0,0.6646,0.6737,0.6749,0.6782,0.6852,0.6895,0.6949,0.7012,0.7042,0.7094,0.7141,0.722,0.7223,0.7261,0.7287,0.732,0.7362,0.732,0.7322,0.7325,0.7435,0.7432,0.744,0.7371,0.7373,0.7374,0.7429,0,0.6696,0.6793,0.6827,0.6907,0.6958,0.6983,0.703,0.7079,0.7111,0.716,0.7196,0.7251,0.7251,0.7275,0.7309,0.7349,0.7384,0.7346,0.7416,0.7418,0.74,0.745,0.7447,0.7497,0.7437,0.7438,0.7439,0,0.6768,0.682,0.6905,0.6968,0.699,0.7032,0.7093,0.7138,0.7193,0.7215,0.7257,0.728,0.7338,0.7326,0.7407,0.738,0.741,0.7434,0.7437,0.7445,0.7431,0.746,0.7514,0.7521,0.7452,0.7451,0.745,0,0.6783,0.6874,0.6937,0.6965,0.704,0.7069,0.7102,0.7156,0.7191,0.7244,0.7268,0.7327,0.7359,0.7405,0.7443,0.7431,0.752,0.7511,0.754,0.7539,0.7558,0.7556,0.7618,0.7577,0.7577,0.7577,0.7577,0,0.6836,0.6887,0.6945,0.6983,0.7041,0.708,0.7136,0.7171,0.7219,0.7265,0.729,0.7333,0.7381,0.743,0.746,0.7522,0.7537,0.7556,0.7563,0.7554,0.7551,0.7575,0.7572,0.7579,0.7578,0.7578,0.7578,0,0.6863,0.6904,0.6973,0.7039,0.7056,0.7096,0.7152,0.7191,0.7225,0.7282,0.7298,0.7351,0.741,0.7452,0.7529,0.7549,0.7616,0.7623,0.7597,0.7601,0.7627,0.7624,0.7706,0.7718,0.7669,0.7669,0.767,0,0.6894,0.6933,0.7003,0.7035,0.7068,0.7119,0.7155,0.7195,0.7232,0.7297,0.7328,0.7389,0.7439,0.7532,0.7578,0.7636,0.7645,0.767,0.7654,0.7643,0.7646,0.7643,0.7647,0.7672,0.7673,0.7673,0.7673,0,0.6944,0.6963,0.7013,0.7071,0.7113,0.7161,0.7209,0.7234,0.7282,0.7322,0.7382,0.7421,0.7499,0.7558,0.7621,0.7656,0.7673,0.7677,0.7687,0.7678,0.7661,0.767,0.7603,0.7676,0.7675,0.7675,0.7675,0.7675,0.6975,0.7011,0.7065,0.7121,0.7161,0.7205,0.7244,0.7282,0.7333,0.7398,0.7419,0.7481,0.7535,0.7621,0.7656,0.7706,0.7705,0.7719,0.7723,0.7725,0.7725,0.7653,0.7718,0.7718,0.7717,0.7717,0.7717,0,0.7027,0.7063,0.7113,0.7179,0.7223,0.7234,0.7288,0.7324,0.7378,0.7427,0.7475,0.7544,0.7602,0.7652,0.7712,0.7742,0.7752,0.7757,0.7755,0.7763,0.7722,0.7708,0.7748,0.7748,0.7748,0.7748,0.7748,0.7748,0.7059,0.7121,0.7145,0.7227,0.7263,0.7324,0.7353,0.7394,0.7433,0.7509,0.7557,0.7588,0.7638,0.7702,0.7755,0.7768,0.7789,0.7793,0.7808,0.7769,0.7766,0.7762,0.7749,0.7797,0.7797,0.7844,0.7844,0.7845]},{"header":{"parameterUnit":"m.s-1","parameterCategory":1,"la1":30.2991,"la2":30.254,"lo1":-89.0895,"lo2":-89.0444,"dy":0.0017,"dx":0.0017,"nx":28,"ny":28,"refTime":"2024-08-08T21:00:00:Z","depth":0,"parameterNumber":3,"parameterNumberName":"V-component_of_WINDS"},"data":[0,0,0,0,0,0,0,0,0,0,0,0,0,0,0,0,0,0,0,0,0,0,0,0,0,0,0,0,0,0,0,0,0,0,0,0,0,0,0,0,0,0,0,0,0,0,0,0,0,0,0,0,0,0,0,0,0,0,0.4301,0.4301,0,0.4334,0.4334,0.4335,0.4312,0.4311,0.431,0.4309,0.4343,0.4345,0.4346,0,0,0,0,0,0,0,0,0,0,0,0,0,0.4214,0.4216,0.43,0.4301,0.4301,0.4334,0.4334,0.4335,0.4313,0.4311,0.431,0.4309,0.4342,0.4344,0.4347,0,0,0,0,0,0,0,0,0,0,0,0,0,0.425,0.4216,0.43,0.4294,0.4294,0.4334,0.4334,0.4335,0.4313,0.4311,0.431,0.4308,0.4341,0.4344,0.4347,0.4394,0,0,0.4355,0.4357,0,0,0,0,0,0,0,0,0.4248,0.4253,0.4295,0.4295,0.4295,0.4317,0.4316,0.4355,0.4313,0.4306,0.4309,0.4308,0.4336,0.4339,0.4348,0.4396,0.4397,0.4356,0.4357,0.4358,0.4359,0,0,0,0,0,0,0,0.4246,0.4252,0.4314,0.4295,0.4295,0.4289,0.4292,0.4323,0.4329,0.4306,0.4305,0.4309,0.4335,0.4346,0.4349,0.4398,0.4355,0.4358,0.436,0.4361,0.448,0.4482,0,0,0,0,0,0,0.4244,0.425,0.4313,0.4315,0.4267,0.4291,0.4295,0.4312,0.4328,0.4329,0.431,0.4308,0.4342,0.4346,0.435,0.4403,0.4358,0.4361,0.4363,0.4479,0.4481,0.4482,0,0,0,0,0,0,0.4242,0.425,0.4311,0.4282,0.4289,0.4294,0.4313,0.4313,0.4323,0.4331,0.4332,0.432,0.4341,0.4346,0.4382,0.4404,0.4362,0.4365,0.4477,0.4479,0.4482,0.4511,0,0,0,0,0,0,0.424,0.4249,0.4269,0.4282,0.4291,0.4344,0.4315,0.4315,0.4328,0.4325,0.4341,0.4342,0.434,0.4378,0.4385,0.4407,0.4367,0.4475,0.4478,0.4481,0.4508,0.4514,0.4519,0,0,0,0,0,0.4237,0.4277,0.427,0.4277,0.4315,0.4346,0.435,0.4348,0.433,0.4348,0.4353,0.4341,0.4401,0.4382,0.439,0.4413,0.4474,0.4477,0.4481,0.4506,0.4513,0.4519,0,0,0,0,0,0,0.4266,0.4279,0.4271,0.4317,0.433,0.4342,0.4365,0.4356,0.4375,0.4371,0.4367,0.437,0.4407,0.4414,0.4393,0.4457,0.4434,0.4439,0.4451,0.4458,0.4463,0.446,0.4369,0,0,0,0,0,0.4278,0.4303,0.4312,0.4351,0.4358,0.436,0.4374,0.437,0.4384,0.4389,0.4397,0.441,0.4431,0.4445,0.4465,0.4509,0.451,0.4529,0.4534,0.4539,0.4542,0.4562,0.4569,0.4494,0.4494,0.4494,0,0,0.4303,0.4312,0.4329,0.4357,0.4367,0.4391,0.4366,0.4393,0.441,0.4394,0.4427,0.4433,0.4447,0.4486,0.4504,0.4492,0.4563,0.4543,0.4546,0.4548,0.4566,0.4573,0.4579,0.4496,0.4496,0.4495,0,0,0.4359,0.4371,0.4402,0.4412,0.4427,0.4427,0.4435,0.4447,0.445,0.4483,0.447,0.449,0.4528,0.4537,0.4546,0.4601,0.459,0.4608,0.4636,0.4655,0.4661,0.4666,0.4682,0.4689,0.4612,0.4612,0.4613,0,0.4388,0.4424,0.442,0.4446,0.4458,0.4443,0.4473,0.4483,0.4504,0.4511,0.4499,0.4542,0.4552,0.459,0.4603,0.4613,0.4619,0.4606,0.4661,0.4666,0.4671,0.4686,0.4692,0.4614,0.4614,0.4614,0.4614,0,0.4456,0.4481,0.4505,0.4523,0.4537,0.4566,0.4564,0.4579,0.4573,0.4574,0.4606,0.4616,0.4636,0.4645,0.4641,0.4682,0.4674,0.4662,0.4638,0.468,0.4694,0.47,0.4617,0.4616,0.4616,0.4615,0,0,0.4534,0.4547,0.4555,0.4561,0.4575,0.4593,0.462,0.4638,0.4649,0.4663,0.4683,0.4713,0.47,0.4711,0.4707,0.4724,0.4762,0.4708,0.4709,0.4715,0.4804,0.4811,0.4819,0.4755,0.4756,0.4757,0.4801,0,0.4588,0.4634,0.4629,0.4672,0.4692,0.4677,0.4699,0.4709,0.471,0.4726,0.4728,0.4747,0.4731,0.4736,0.4752,0.4754,0.4779,0.4751,0.4771,0.4772,0.4766,0.4827,0.4836,0.4877,0.4807,0.4808,0.4809,0,0.4658,0.4672,0.4717,0.4723,0.4731,0.4752,0.4765,0.4783,0.4792,0.4791,0.4801,0.4793,0.4817,0.4794,0.4825,0.4806,0.4814,0.4816,0.4817,0.4817,0.4792,0.4826,0.4891,0.4896,0.4818,0.4818,0.4817,0,0.4706,0.4736,0.4765,0.4772,0.478,0.4794,0.4798,0.4806,0.4816,0.4828,0.4834,0.485,0.4858,0.4869,0.4864,0.4849,0.4895,0.4873,0.4893,0.4893,0.4902,0.4901,0.4967,0.4911,0.4911,0.4911,0.4911,0,0.4765,0.4792,0.4786,0.4804,0.4832,0.4826,0.4854,0.4856,0.4862,0.4879,0.4867,0.4883,0.4876,0.4891,0.4888,0.4912,0.4916,0.4914,0.4913,0.4914,0.4914,0.4918,0.4914,0.4913,0.4912,0.4912,0.4912,0,0.4823,0.482,0.485,0.4855,0.4856,0.4877,0.488,0.4896,0.4895,0.4915,0.492,0.4918,0.4934,0.4931,0.495,0.4947,0.4976,0.4972,0.4973,0.4971,0.499,0.4987,0.5058,0.5066,0.5008,0.5009,0.5009,0,0.486,0.488,0.4886,0.4895,0.49,0.4916,0.4925,0.4919,0.4928,0.4938,0.4952,0.4967,0.4978,0.5004,0.5004,0.5017,0.5011,0.5035,0.5013,0.5013,0.5008,0.5006,0.5006,0.5039,0.504,0.5041,0.5041,0,0.4925,0.4922,0.4936,0.4948,0.4958,0.4968,0.4976,0.4985,0.4978,0.499,0.5005,0.5014,0.5031,0.5045,0.5056,0.5059,0.5048,0.5048,0.5053,0.5053,0.5051,0.5049,0.4982,0.5046,0.5046,0.5045,0.5045,0.5045,0.4972,0.4987,0.4992,0.5006,0.5011,0.5018,0.5032,0.5031,0.5044,0.5057,0.5052,0.5069,0.5074,0.5087,0.5091,0.5104,0.5094,0.5102,0.5104,0.5105,0.5106,0.5051,0.5106,0.5106,0.5106,0.5106,0.5105,0,0.5033,0.5034,0.5048,0.5058,0.5069,0.5057,0.5065,0.5074,0.5089,0.5095,0.5105,0.5121,0.5134,0.5133,0.5144,0.5154,0.5149,0.5157,0.5155,0.5155,0.5115,0.5108,0.516,0.516,0.516,0.516,0.516,0.516,0.5066,0.509,0.5086,0.5111,0.5112,0.5128,0.5133,0.5138,0.5142,0.516,0.517,0.5169,0.5172,0.5182,0.5192,0.5191,0.5195,0.5204,0.5201,0.5164,0.5158,0.5153,0.5146,0.5205,0.5205,0.524,0.524,0.524]}]]